COSMOS 2436 (723)

Last updated on Nov. 12, 2019, 4:19 a.m. UTC

1 32395U 07065C   19315.64956214 -.00000010  00000-0  10000-3 0  9992
2 32395  64.6693 273.9797 0014822 331.0162 286.8907  2.13280856 92382
UTC
Height (km)
Latitude
Longitude
Inclination
Orbital Period
UTC large
Height (km)
Speed (km/s)
/
Latitude / Longitude
Inclination (degrees)
Orbital Period (minutes)
Azimuth
Elevation
Range (km)
Doppler Factor
iOS Compass Heading
iOS Angle

Next 30 passes for location: Hong Kong

Rise time Rise Azimuth (degrees) Set time Set Azimuth (degrees) Duration Max altitude (degrees)

No matching passes for this satellites